Terminal Aerodrome Forecast
Issued by NWS

Home | Current Version | Previous Version | Text Only | Print | Product List | Glossary On
Versions: 1 2 3 4 5 6 7 8 9 10 11 12 13 14 15
000
FTUS45 KTFX 230500
TAFBZN
TAF
KBZN 230520Z 2306/2406 15005KT P6SM SCT120
     FM232000 24010G20KT P6SM BKN250=

USA.gov is the U.S. government's official web portal to all federal, state and local government web resources and services.